Arden, NC

5:28 PM EST on December 06, 2016 (GMT -0500)
Asheville Regional

Weather History for KAVL - August, 2013

Change the Weather History Date:

Friday, August 16, 2013

  Actual Average Record
Temperature  
Mean Temperature 64 °F 73 °F  
Max Temperature 72 °F 83 °F 94 °F (2007)
Min Temperature 56 °F 63 °F 53 °F (1877)
Degree Days  
Heating Degree Days 1 0  
Month to date heating degree days 4 0  
Since 1 June heating degree days 4 14  
Since 1 July heating degree days 4 0  
Cooling Degree Days 0 8  
Month to date cooling degree days 119 139  
Year to date cooling degree days 642 649  
Since 1 June cooling degree days 591 591  
Growing Degree Days 14 (Base 50)    
Moisture  
Dew Point 57 °F    
Average Humidity 79    
Maximum Humidity 100    
Minimum Humidity 57    
Precipitation  
Precipitation T in 0.14 in 2.86 in (1994)
Month to date precipitation 5.16 2.27  
Year to date precipitation 56.94 29.48  
Snow  
Snow 0.00 in 0.00 in 0.00 in ()
Month to date snowfall 0.0 0.0  
Since 1 June snowfall 0.0 0.0  
Since 1 July snowfall 0.0 0.0  
Snow Depth 0.00 in    
Sea Level Pressure  
Sea Level Pressure 30.14 in    
Wind  
Wind Speed 3 mph (South)    
Max Wind Speed 10 mph    
Max Gust Speed 15 mph    
Visibility 10 miles    
Events      
T = Trace of Precipitation, MM = Missing Value Source: NWS Daily Summary

Daily Weather History Graph

Daily Weather History Graph

Search for Another Location

Airport or City:

Trip Planner

Search our weather history database for the weather conditions in past years. The results will help you decide how hot, cold, wet, or windy it might be!

Date:

Astronomy

Aug. 16, 2013 Rise Set
Actual Time 6:50 AM EDT 8:17 PM EDT
Civil Twilight 6:23 AM EDT 8:44 PM EDT
Nautical Twilight 5:51 AM EDT 9:16 PM EDT
Astronomical Twilight 5:17 AM EDT 9:50 PM EDT
Moon 4:31 PM EDT (8/16) 1:56 AM EDT (8/16)
Length of Visible Light 14h 20m
Length of Day
13h 27m
Waxing Gibbous, 74% of the Moon is Illuminated
Aug 16
Waxing Gibbous
Aug 20
Full
Aug 28
Last Quarter
Sep 5
New
Sep 12
First Quarter

Hourly Weather History & Observations

Time (EDT) Temp. Dew Point Humidity Pressure Visibility Wind Dir Wind Speed Gust Speed Precip Events Conditions
1:54 AM 57.9 °F 57.0 °F 97% 30.14 in 9.0 mi Calm Calm - N/A   Scattered Clouds
2:54 AM 57.9 °F 55.9 °F 93% 30.12 in 10.0 mi Calm Calm - N/A   Partly Cloudy
3:54 AM 57.0 °F 55.9 °F 96% 30.10 in 8.0 mi SW 3.5 mph - N/A   Scattered Clouds
4:54 AM 57.0 °F 55.0 °F 93% 30.11 in 8.0 mi Calm Calm - N/A   Partly Cloudy
5:54 AM 57.0 °F 55.0 °F 93% 30.13 in 10.0 mi Calm Calm - N/A   Overcast
6:54 AM 57.9 °F 55.9 °F 93% 30.14 in 10.0 mi Calm Calm - N/A   Overcast
7:54 AM 57.9 °F 55.9 °F 93% 30.15 in 7.0 mi Calm Calm - N/A   Overcast
8:54 AM 61.0 °F 57.0 °F 87% 30.15 in 10.0 mi Calm Calm - N/A   Overcast
9:54 AM 63.0 °F 55.9 °F 78% 30.16 in 10.0 mi South 3.5 mph - N/A   Overcast
10:54 AM 64.9 °F 53.1 °F 65% 30.14 in 10.0 mi Variable 5.8 mph - N/A   Partly Cloudy
11:54 AM 66.0 °F 53.1 °F 63% 30.15 in 10.0 mi SE 8.1 mph - N/A   Mostly Cloudy
12:54 PM 66.9 °F 54.0 °F 63% 30.14 in 10.0 mi SSE 4.6 mph - N/A   Overcast
1:54 PM 69.1 °F 55.9 °F 63% 30.13 in 10.0 mi Variable 4.6 mph - N/A   Mostly Cloudy
2:54 PM 69.1 °F 54.0 °F 58% 30.12 in 10.0 mi Calm Calm - N/A   Overcast
3:54 PM 70.0 °F 55.9 °F 61% 30.11 in 10.0 mi SE 3.5 mph - N/A   Overcast
4:54 PM 72.0 °F 59.0 °F 64% 30.09 in 10.0 mi South 8.1 mph - N/A   Mostly Cloudy
5:54 PM 70.0 °F 57.9 °F 65% 30.10 in 10.0 mi South 10.4 mph - N/A   Overcast
6:54 PM 69.1 °F 57.9 °F 68% 30.09 in 10.0 mi Variable 3.5 mph - N/A   Overcast
7:54 PM 66.9 °F 59.0 °F 76% 30.12 in 10.0 mi SE 3.5 mph - N/A   Mostly Cloudy
8:54 PM 64.0 °F 59.0 °F 84% 30.14 in 10.0 mi South 4.6 mph - 0.00 in   Clear
9:54 PM 63.0 °F 59.0 °F 87% 30.17 in 10.0 mi South 4.6 mph - N/A   Overcast
10:54 PM 62.1 °F 59.0 °F 90% 30.17 in 10.0 mi South 6.9 mph - N/A   Mostly Cloudy
11:15 PM 62.6 °F 59.0 °F 88% 30.22 in 10.0 mi South 4.6 mph - N/A   Mostly Cloudy
11:35 PM 62.6 °F 59.0 °F 88% 30.23 in 10.0 mi South 3.5 mph - N/A   Scattered Clouds
11:54 PM 61.0 °F 59.0 °F 93% 30.17 in 10.0 mi South 3.5 mph - N/A   Partly Cloudy